Temperature
23 23 23 23 20 20 21 23 25 24 24 24 24 24 23 22 21 19 20 21 21 21 21 21 21 21 20 19 19 19 19 19 19 19 19 19 18 18 18 18 18 18 18 18 18 18 18 18 18
23 23 23 22 18 20 22 23 24 25 24 23 23 24 23 22 21 20 19 20 21 21 21 21 21 21 21 20 20 19 19 19 19 19 18 18 19 19 18 18 18 18 18 18 18 18 18 18 18
22 23 23 19 18 21 22 23 23 24 24 24 23 24 23 22 21 20 20 20 21 21 21 21 21 21 20 20 20 19 19 19 18 18 19 18 18 18 18 18 18 18 18 18 18 18 18 19 19
23 23 22 20 20 22 23 24 22 22 25 26 25 23 22 22 22 21 20 21 22 22 21 21 21 21 20 20 20 19 19 19 18 18 18 18 18 18 18 18 18 18 18 18 18 18 18 18 18
23 23 19 19 21 23 24 25 23 23 25 26 25 21 21 21 22 21 21 21 22 21 21 21 21 20 20 20 20 19 18 18 18 18 18 18 18 18 18 18 18 18 17 17 18 18 18 18 18
23 21 20 20 22 25 25 24 22 25 25 25 23 21 21 20 21 21 21 21 21 21 21 20 20 20 20 20 19 19 18 18 18 18 18 18 18 17 17 17 17 17 17 18 18 18 18 18 18
23 19 21 22 23 25 25 25 25 25 25 25 24 21 21 20 21 21 21 21 21 21 21 20 20 20 19 19 19 18 18 17 17 17 18 17 17 17 17 17 17 17 17 18 17 17 17 17 17
24 20 21 22 24 26 27 27 27 27 25 26 26 22 21 21 21 20 20 20 20 21 21 20 20 20 19 19 19 18 18 17 17 17 17 17 17 17 17 17 17 17 17 17 17 17 18 18 18
24 21 20 22 26 28 28 27 27 27 26 27 26 25 23 22 21 20 20 20 20 20 20 19 20 20 19 19 19 19 18 17 17 17 17 17 17 17 17 17 17 17 17 17 17 17 17 17 17
24 20 21 24 27 29 29 28 27 25 25 25 25 25 23 21 21 20 20 20 19 19 19 19 21 21 20 19 19 18 18 18 17 17 17 17 17 17 17 17 17 17 17 17 17 17 17 17 17
24 23 24 25 28 30 29 29 27 25 24 25 24 23 22 21 21 21 20 20 19 19 19 20 22 21 20 19 18 18 17 17 17 17 17 17 17 17 17 17 16 16 16 16 16 16 17 16 17
23 25 26 27 30 31 29 29 28 27 26 27 26 24 22 22 21 21 20 20 19 19 20 19 20 20 20 19 17 17 17 17 17 17 17 17 17 17 16 16 16 17 16 16 16 16 16 16 16
24 25 28 29 30 31 30 29 29 29 28 26 25 23 22 22 22 21 20 19 20 20 20 19 19 20 20 19 17 17 16 17 16 17 17 17 17 17 17 16 16 17 17 17 17 16 16 16 16
25 26 27 28 30 30 29 29 29 28 27 25 24 22 21 21 21 20 19 20 21 23 22 21 21 20 19 17 17 17 17 16 16 16 16 16 16 16 16 16 16 16 16 16 16 16 16 15 15
26 25 25 27 29 30 28 27 28 27 26 25 22 21 21 20 20 20 20 21 23 23 22 23 21 19 19 18 17 17 16 16 16 16 16 16 16 16 16 16 16 16 16 15 15 15 15 15 15
23 24 24 25 27 28 27 25 26 28 25 24 22 21 20 19 20 20 21 22 22 21 20 21 20 18 17 17 16 16 16 16 16 16 16 16 16 16 16 15 15 15 15 15 15 15 15 15 15
22 22 23 24 26 26 26 24 26 25 25 22 21 21 20 19 20 20 20 21 21 19 19 19 19 18 17 16 16 16 16 16 16 16 16 16 15 15 15 15 15 15 15 15 14 14 14 14 15
21 22 23 23 25 25 25 24 23 22 21 21 20 20 19 18 18 19 19 19 19 18 18 18 17 17 17 16 16 16 16 16 16 16 15 14 14 14 14 14 14 14 14 14 14 13 13 13 13
21 21 22 23 25 24 23 22 20 20 20 20 19 19 18 18 18 18 18 18 18 17 17 17 16 17 16 16 16 15 15 15 15 14 14 14 14 14 13 13 13 13 12 12 13 12 12 11 11
21 21 21 23 25 24 21 20 19 19 19 19 17 17 17 17 16 16 16 16 16 16 16 15 15 15 16 15 15 15 14 14 14 14 13 13 13 13 12 12 11 11 11 11 11 10 10 10 10
22 21 22 23 25 23 22 20 18 18 19 18 16 16 16 15 15 15 15 15 14 13 13 14 15 15 15 15 15 15 14 13 13 12 12 12 11 11 11 11 11 10 10 10 9 9 9 8 8
21 23 23 24 23 21 23 19 19 18 17 16 15 15 15 15 15 15 14 14 13 13 13 14 14 14 14 15 14 13 13 13 12 12 11 11 11 10 10 10 10 9 9 9 8 8 7 7 7
23 24 24 24 23 22 22 20 18 17 16 15 14 14 14 15 14 14 14 14 13 13 14 13 13 13 13 13 13 13 13 12 11 10 10 9 9 9 9 9 8 8 7 7 7 7 6 6 5
24 24 22 20 19 20 21 21 18 17 17 15 14 13 14 14 14 14 13 13 13 14 13 12 13 12 13 12 12 12 11 10 10 9 9 8 8 7 7 7 7 6 5 5 6 5 5 4 4
23 22 20 20 19 20 20 20 19 19 17 16 14 13 13 13 13 13 12 12 12 13 13 13 13 13 12 11 11 11 10 10 9 8 8 7 7 6 6 6 5 5 5 5 4 4 4 3 3
22 21 19 18 18 19 21 19 18 18 18 16 14 14 13 13 13 12 12 12 12 12 11 12 12 11 11 11 10 10 9 9 8 7 6 6 5 5 5 4 4 4 4 3 3 3 3 3 3
21 21 21 20 19 18 19 18 17 16 16 15 14 14 13 13 12 12 12 11 11 11 11 11 11 11 10 9 8 8 8 7 6 6 5 5 5 4 4 4 4 3 3 3 3 3 2 2 2
22 23 18 19 18 17 18 17 16 15 15 15 14 13 12 13 12 12 12 11 11 11 10 10 10 9 8 8 7 7 6 6 5 4 4 4 4 4 4 3 3 3 3 2 2 2 2 1 1
22 21 22 20 19 18 17 17 17 17 16 15 14 12 12 13 12 12 11 10 10 10 10 9 9 8 7 7 6 5 5 5 4 4 4 4 4 3 3 3 2 2 2 2 2 1 1 1 1
23 21 20 18 19 18 17 18 18 18 16 14 13 12 13 13 12 11 10 10 10 10 9 9 8 7 7 6 5 5 4 4 4 4 3 3 3 3 3 3 3 2 2 2 1 1 1 1 1
Wind_Speed
3 4 0 3 5 4 3 6 5 5 1 2 6 10 10 7 6 4 5 10 15 9 11 14 15 15 14 13 13 14 14 14 14 14 14 13 11 10 9 9 9 9 10 10 9 8 7 6 6
2 2 3 4 5 2 5 6 6 5 6 6 7 9 8 5 8 10 7 11 13 11 11 14 16 15 15 15 15 14 14 14 13 13 12 11 11 11 10 8 9 10 10 9 8 7 6 4 2
1 2 4 4 3 5 6 8 8 7 6 8 6 3 6 3 10 10 11 14 12 10 11 15 16 14 14 14 15 14 14 14 13 12 12 11 10 10 11 12 12 11 11 10 8 7 6 5 3
2 4 3 3 4 7 8 8 5 8 4 6 7 5 4 1 6 13 18 17 13 9 12 15 16 15 15 14 14 14 13 14 14 13 12 11 10 10 11 13 13 10 9 9 9 8 7 4 2
3 3 2 1 7 8 11 11 4 8 5 7 7 6 4 3 17 20 17 16 15 10 11 13 14 14 14 14 13 13 12 12 12 12 11 10 10 10 10 11 11 10 7 6 6 5 5 3 1
3 3 1 5 6 8 9 8 8 5 7 8 10 9 2 9 19 17 16 14 13 11 10 11 13 13 13 14 13 11 10 11 11 12 11 10 9 7 7 8 8 8 8 6 4 3 2 1 2
2 3 3 7 9 6 6 7 9 10 10 7 10 8 7 7 19 18 14 14 13 12 11 11 13 14 13 12 12 11 10 9 9 10 10 8 6 6 6 6 6 7 6 4 2 2 2 2 3
4 3 3 6 8 4 9 9 10 12 6 8 9 10 10 15 21 19 17 14 11 10 8 5 7 10 10 9 10 9 9 8 8 7 6 5 4 4 4 4 5 5 4 3 4 5 4 3 4
4 1 5 5 7 3 4 7 3 3 9 4 4 8 17 21 21 18 15 13 11 8 8 5 5 9 9 8 9 9 9 9 8 8 7 6 3 2 2 3 4 5 6 6 6 5 4 4 6
5 4 8 6 7 4 3 2 7 6 6 5 8 12 18 19 21 20 16 14 10 9 7 8 7 7 8 6 6 7 9 10 10 10 9 7 6 6 5 5 6 6 5 5 5 5 7 7 7
5 8 11 15 12 2 4 5 5 12 6 13 20 22 20 17 19 19 15 11 5 6 8 10 10 7 3 2 4 5 7 8 9 11 11 9 8 5 4 3 2 4 5 5 5 6 8 8 8
6 12 10 13 8 2 1 1 5 4 8 17 26 27 21 16 18 18 16 12 8 5 1 5 6 4 4 5 4 4 5 6 7 11 11 8 5 5 6 4 5 7 7 4 4 5 8 10 11
6 10 11 9 2 3 2 3 2 5 10 16 20 22 20 17 20 21 23 18 16 10 3 5 7 7 7 7 6 5 6 7 7 8 6 7 6 3 5 5 7 8 8 5 4 4 4 5 7
7 11 13 11 1 2 3 4 3 2 14 15 16 16 18 22 26 25 24 20 20 19 14 14 14 10 6 4 4 3 5 7 7 6 5 4 5 3 1 1 2 3 4 4 3 2 2 3 4
4 8 11 6 2 2 4 5 3 6 13 13 15 17 18 18 25 26 24 20 17 16 16 14 9 8 9 9 5 5 4 6 6 6 6 5 5 3 3 1 1 1 1 2 2 2 3 4 5
7 4 6 9 4 2 5 8 8 5 11 9 16 17 17 15 19 21 19 14 9 8 8 4 8 7 8 8 5 5 7 5 4 5 4 3 4 5 5 4 5 7 7 5 4 4 4 4 4
5 4 8 11 7 1 4 9 1 8 16 13 17 19 19 18 19 16 11 6 3 7 8 9 9 8 9 9 7 6 8 7 7 8 10 12 14 12 8 4 4 7 5 3 3 3 2 4 5
6 5 8 9 8 2 8 7 7 7 18 15 16 17 17 19 16 12 8 5 5 7 9 8 3 10 12 9 7 5 6 7 10 11 11 13 13 12 9 3 2 3 3 2 2 3 4 3 4
8 9 12 15 13 4 5 9 10 12 17 15 13 12 11 9 8 7 7 5 3 3 3 1 5 9 7 5 5 5 4 4 6 8 12 14 14 12 8 4 5 5 4 5 6 4 4 5 6
10 12 15 15 9 2 8 11 9 9 12 13 15 14 15 14 9 6 5 3 3 4 7 9 9 10 8 5 4 5 5 5 5 5 11 15 15 15 11 6 6 5 5 6 6 4 3 4 6
13 11 14 13 6 5 8 8 7 6 9 12 14 15 13 13 14 11 11 9 9 8 9 11 13 12 11 9 8 8 8 6 5 5 5 7 11 12 9 6 4 4 5 5 5 7 7 5 4
12 15 13 11 4 4 7 5 5 5 8 10 12 12 12 11 11 11 12 11 11 10 10 12 12 11 10 10 11 10 5 4 3 2 2 4 8 10 10 11 10 7 7 8 8 8 5 5 5
13 17 11 7 4 2 1 5 6 9 8 9 11 12 10 10 10 11 11 10 10 12 11 12 12 10 8 8 7 7 5 3 2 3 6 7 8 11 12 11 10 6 7 7 7 7 6 5 5
14 7 0 3 3 4 6 7 8 12 16 17 15 15 12 10 10 12 11 10 10 10 11 10 11 9 8 8 7 7 7 6 6 6 5 5 5 5 8 9 8 5 3 4 3 3 3 4 4
5 6 5 4 5 7 7 5 8 15 17 20 20 17 14 12 11 12 9 9 9 10 9 9 12 10 9 9 10 10 9 9 7 6 5 5 5 5 8 7 6 4 5 5 4 5 5 5 6
7 10 10 9 9 7 3 4 8 11 17 17 17 16 16 12 10 10 9 8 10 11 9 8 10 8 9 10 10 9 9 7 6 6 5 5 4 4 4 5 6 6 6 5 4 4 5 6 6
5 7 10 9 5 4 3 4 6 10 19 22 21 19 17 14 13 13 10 9 11 11 8 9 10 10 9 8 8 8 8 7 6 5 4 3 3 4 5 6 5 5 6 5 5 5 5 6 6
9 8 5 4 8 7 4 5 11 15 18 20 20 19 19 17 14 12 10 10 12 11 8 9 10 8 7 7 7 6 6 6 5 5 5 5 4 4 5 6 6 6 6 6 6 5 6 7 7
5 5 5 5 5 7 6 8 14 24 23 21 18 19 20 17 13 10 11 12 12 10 8 8 8 7 8 7 5 5 5 4 3 3 5 6 6 5 4 4 4 4 4 3 3 5 6 8 9
7 7 10 8 6 6 7 8 10 21 19 19 18 17 15 13 11 12 11 10 10 9 8 8 7 8 7 6 4 4 3 3 4 5 6 5 6 6 4 4 5 2 3 3 4 6 7 9 11
Wind_Direction
274 282 188 47 53 56 267 252 219 255 46 204 156 140 145 144 137 152 128 120 123 136 145 135 126 121 121 130 131 137 142 143 141 139 137 135 133 129 125 122 123 124 125 127 130 136 144 154 162
319 328 42 59 81 54 280 265 238 209 131 147 111 111 88 60 84 122 128 130 127 139 147 133 127 128 128 132 135 140 143 146 145 142 141 143 146 148 143 136 134 136 137 139 141 146 151 166 204
300 51 68 68 104 187 233 248 272 310 150 179 158 129 88 110 123 136 137 139 136 139 135 127 130 130 127 125 134 138 143 148 149 147 147 152 158 160 153 148 146 149 153 156 156 165 172 182 220
51 46 51 105 225 239 233 248 253 278 177 143 141 90 54 164 125 134 143 141 133 130 132 132 135 132 128 127 128 136 148 153 154 151 150 152 157 163 162 157 154 155 160 165 161 167 167 161 169
54 81 57 228 231 249 237 220 222 238 143 123 118 86 37 52 114 133 145 143 134 131 128 130 128 126 128 129 127 132 145 148 149 148 146 151 156 162 170 166 163 163 160 150 145 156 149 148 169
45 64 7 272 252 255 252 198 233 202 130 119 111 111 82 121 130 147 148 136 131 126 116 124 128 129 130 132 131 132 141 143 146 143 141 147 154 158 169 169 163 152 149 151 153 170 166 175 303
126 82 277 276 286 256 228 175 212 155 148 136 129 105 159 150 151 149 131 121 125 126 132 143 145 139 138 138 136 139 144 144 153 149 144 144 146 143 153 166 166 156 160 172 182 258 280 305 298
154 113 269 284 285 248 187 176 181 162 132 140 137 141 180 172 153 138 126 120 128 145 131 126 138 126 135 144 140 142 147 152 153 143 138 132 125 138 153 163 184 179 189 219 246 250 246 253 281
147 226 255 260 291 339 166 151 128 100 128 146 145 155 165 169 141 126 120 124 141 128 94 107 128 117 141 159 155 156 157 162 158 153 154 152 161 177 172 173 199 196 207 229 243 259 278 289 299
161 205 240 247 288 357 349 96 129 100 102 88 86 123 155 163 139 136 139 146 149 123 127 148 154 148 168 169 160 164 172 175 178 175 175 177 188 199 187 195 195 200 220 242 260 283 293 293 295
210 236 262 272 268 112 16 1 101 125 165 161 146 153 164 157 140 136 140 132 107 106 146 171 160 153 160 165 175 183 192 190 192 190 187 186 182 174 166 203 238 259 254 262 280 278 273 276 280
240 263 255 264 253 114 86 20 129 166 192 171 158 159 158 149 134 131 113 94 72 62 156 229 160 141 179 177 194 203 207 206 212 205 189 178 173 173 192 191 218 242 249 251 266 280 284 290 290
252 282 288 268 200 286 43 343 244 169 166 160 154 155 143 123 115 108 106 104 91 73 344 255 197 190 179 169 174 187 207 203 188 164 158 193 195 189 205 204 219 235 233 224 252 265 267 268 281
276 295 297 300 74 48 26 336 346 156 145 156 146 123 124 128 128 121 123 140 148 162 174 206 192 178 150 134 126 134 152 147 132 105 84 96 142 160 175 191 216 255 215 192 220 240 252 263 269
290 308 317 297 254 154 82 336 310 161 159 153 114 111 111 126 138 142 153 163 169 187 190 196 163 158 145 131 118 97 92 127 129 119 95 91 113 117 78 75 87 5 287 220 225 294 347 336 338
339 339 312 290 251 221 115 259 283 142 140 133 124 123 119 129 145 156 167 166 189 205 207 152 94 115 123 115 94 78 91 90 101 99 80 40 25 34 42 30 24 29 26 24 11 10 355 347 327
357 286 292 291 282 144 173 235 218 98 115 124 138 142 140 143 156 167 167 159 42 2 18 34 67 100 110 102 88 78 86 78 72 65 42 38 40 39 45 58 45 44 47 40 27 357 333 300 307
254 276 285 282 291 205 216 198 106 104 110 120 134 143 146 153 162 161 141 111 50 11 15 27 54 114 110 106 94 77 64 61 60 51 40 37 33 30 37 26 16 40 45 13 18 325 286 283 318
239 261 273 278 284 281 232 132 109 117 110 115 117 118 119 122 133 136 134 143 112 26 340 46 94 99 102 86 89 90 62 41 48 39 33 30 25 19 24 17 3 4 8 5 16 357 342 358 3
248 263 273 280 280 107 93 78 73 110 123 123 121 121 124 125 133 144 146 125 107 81 66 68 71 62 54 63 68 78 79 58 48 41 36 31 29 24 27 26 16 12 20 26 19 13 6 17 33
246 235 251 259 283 90 100 60 55 60 95 106 114 122 120 124 131 130 134 131 120 104 88 82 73 64 56 53 61 60 53 41 32 21 22 23 37 39 32 23 8 14 40 42 36 30 34 11 15
253 247 235 245 236 196 171 159 177 170 121 117 119 119 119 113 110 112 117 119 118 112 101 92 83 74 67 65 73 75 74 63 25 360 9 5 16 14 17 19 23 20 28 36 34 35 25 8 348
235 250 233 228 237 249 141 161 198 171 156 148 132 125 123 118 117 113 113 112 110 109 102 96 92 85 81 83 88 89 81 66 20 8 10 3 7 29 38 39 35 29 30 30 28 21 8 346 328
235 228 282 58 75 279 237 214 209 190 174 158 146 137 130 117 111 108 105 96 86 88 93 96 92 82 76 75 72 72 69 50 44 30 27 18 16 19 24 27 25 15 11 6 1 3 359 328 314
201 211 251 273 267 252 247 219 245 197 159 154 147 142 139 135 126 119 114 108 103 90 83 83 83 73 68 65 60 63 65 63 56 40 37 29 14 2 1 3 358 350 351 351 345 350 341 320 325
216 181 192 213 235 263 290 292 310 146 133 131 134 139 141 138 131 126 130 130 110 94 86 82 81 72 61 67 72 68 60 52 41 35 35 31 10 343 338 344 345 341 339 342 340 343 334 334 320
235 187 196 176 186 205 170 104 43 100 131 142 149 147 143 143 136 136 138 129 106 95 88 85 75 65 65 75 73 64 55 51 43 34 37 29 2 335 342 342 336 332 336 346 350 344 342 345 329
206 191 154 186 195 228 233 204 177 168 162 155 153 148 146 146 146 149 138 115 103 100 93 75 72 73 69 74 76 72 60 52 41 27 6 348 333 331 337 335 337 332 339 352 356 334 330 330 311
198 154 162 176 177 199 223 249 191 185 170 158 150 144 146 148 153 136 122 117 108 105 93 81 76 69 63 73 64 55 48 42 24 346 338 334 330 326 309 308 320 325 338 360 340 321 315 313 307
202 189 163 173 213 196 187 248 199 180 164 152 142 139 140 137 128 119 121 115 109 102 89 78 80 79 81 84 61 30 13 355 340 333 337 348 342 325 304 311 305 248 227 254 277 300 310 310 306
Height
1529 1530 1530 1530 1534 1542 1543 1529 1517 1512 1514 1516 1517 1519 1523 1520 1523 1538 1534 1534 1536 1538 1541 1542 1543 1543 1544 1545 1545 1545 1546 1547 1547 1548 1549 1550 1550 1551 1551 1550 1551 1551 1552 1553 1554 1554 1554 1555 1554
1528 1530 1530 1529 1542 1552 1541 1522 1512 1509 1512 1513 1515 1517 1517 1518 1518 1526 1531 1534 1537 1539 1541 1541 1542 1543 1544 1545 1545 1546 1546 1548 1548 1549 1549 1550 1551 1551 1551 1551 1551 1552 1552 1553 1554 1554 1554 1554 1554
1528 1529 1530 1532 1545 1544 1533 1512 1508 1508 1514 1512 1515 1516 1516 1519 1521 1524 1529 1533 1536 1537 1540 1541 1542 1543 1544 1545 1546 1546 1546 1547 1549 1549 1549 1550 1551 1551 1550 1550 1552 1553 1553 1553 1554 1554 1555 1554 1555
1527 1529 1531 1536 1540 1528 1517 1508 1509 1514 1510 1509 1512 1516 1518 1521 1521 1524 1528 1532 1534 1537 1539 1541 1542 1542 1543 1544 1545 1546 1547 1547 1547 1549 1550 1550 1551 1551 1551 1550 1551 1551 1552 1553 1554 1554 1554 1554 1555
1527 1527 1534 1539 1532 1516 1505 1506 1510 1510 1506 1506 1508 1517 1521 1524 1523 1527 1529 1531 1534 1537 1540 1541 1542 1543 1544 1544 1545 1546 1546 1548 1548 1548 1549 1550 1551 1551 1551 1550 1550 1550 1551 1552 1552 1553 1553 1554 1554
1526 1526 1536 1536 1524 1510 1498 1500 1508 1502 1501 1504 1509 1517 1526 1527 1527 1530 1531 1532 1535 1538 1541 1543 1544 1545 1545 1545 1546 1547 1547 1547 1548 1547 1548 1549 1550 1551 1552 1551 1551 1551 1551 1551 1552 1552 1552 1552 1551
1525 1529 1532 1528 1520 1506 1499 1500 1504 1499 1502 1506 1508 1517 1525 1527 1526 1530 1534 1536 1537 1540 1542 1545 1545 1545 1545 1546 1546 1546 1547 1548 1550 1548 1547 1548 1549 1551 1552 1551 1552 1552 1552 1552 1551 1551 1550 1549 1549
1524 1528 1530 1524 1515 1506 1497 1497 1495 1496 1502 1504 1505 1512 1519 1524 1526 1529 1534 1537 1540 1542 1544 1546 1546 1545 1546 1546 1547 1546 1546 1547 1549 1550 1549 1548 1550 1551 1551 1550 1551 1552 1552 1552 1550 1549 1548 1548 1548
1524 1530 1533 1525 1510 1499 1495 1494 1499 1499 1499 1503 1504 1504 1510 1520 1526 1530 1533 1536 1539 1543 1544 1545 1546 1547 1547 1548 1548 1547 1547 1548 1549 1550 1549 1549 1549 1550 1550 1551 1551 1551 1551 1551 1550 1549 1549 1548 1548
1520 1529 1522 1510 1504 1497 1495 1495 1498 1500 1500 1502 1505 1509 1514 1520 1525 1528 1534 1538 1542 1546 1547 1546 1546 1547 1548 1549 1550 1549 1549 1549 1549 1550 1549 1549 1550 1550 1550 1551 1551 1551 1550 1550 1549 1548 1550 1550 1549
1515 1515 1509 1505 1501 1495 1494 1495 1498 1499 1502 1498 1501 1506 1513 1520 1525 1531 1536 1541 1545 1548 1550 1547 1546 1548 1551 1552 1552 1551 1551 1549 1548 1547 1547 1548 1549 1550 1549 1550 1550 1550 1550 1550 1549 1548 1548 1548 1549
1512 1505 1505 1500 1494 1491 1492 1493 1496 1496 1496 1496 1496 1500 1510 1520 1526 1531 1535 1540 1543 1545 1549 1548 1547 1548 1548 1550 1550 1550 1550 1549 1548 1547 1546 1546 1547 1548 1548 1548 1547 1548 1548 1548 1547 1545 1545 1545 1546
1507 1501 1496 1494 1488 1488 1488 1491 1492 1493 1493 1496 1500 1503 1511 1518 1522 1526 1528 1533 1539 1546 1551 1546 1544 1541 1540 1541 1544 1547 1548 1549 1548 1547 1546 1546 1545 1544 1544 1544 1545 1546 1545 1545 1545 1544 1543 1543 1543
1504 1500 1496 1491 1485 1487 1489 1489 1491 1492 1492 1498 1502 1508 1511 1513 1516 1519 1524 1527 1528 1528 1530 1534 1536 1534 1536 1541 1542 1544 1545 1546 1547 1546 1546 1546 1546 1545 1545 1545 1545 1545 1544 1544 1543 1543 1542 1541 1541
1503 1500 1495 1490 1487 1486 1489 1494 1491 1492 1493 1496 1505 1510 1512 1514 1515 1518 1519 1520 1521 1520 1518 1522 1529 1532 1534 1538 1540 1541 1544 1546 1547 1546 1546 1546 1545 1545 1545 1545 1543 1543 1542 1541 1541 1541 1539 1538 1537
1502 1504 1506 1492 1486 1485 1494 1505 1491 1489 1493 1500 1506 1510 1513 1514 1515 1517 1517 1519 1520 1520 1520 1525 1531 1533 1535 1538 1540 1540 1541 1545 1545 1545 1545 1545 1544 1543 1543 1542 1540 1539 1539 1538 1536 1535 1533 1532 1531
1511 1516 1509 1497 1484 1488 1494 1501 1492 1490 1491 1496 1502 1507 1512 1514 1516 1519 1520 1522 1522 1522 1525 1528 1529 1531 1535 1537 1539 1541 1541 1542 1543 1543 1543 1543 1541 1541 1540 1540 1539 1537 1535 1534 1533 1531 1528 1525 1523
1520 1515 1510 1503 1488 1489 1493 1495 1493 1493 1490 1496 1501 1505 1509 1512 1515 1517 1520 1521 1522 1524 1529 1530 1530 1531 1534 1536 1538 1541 1542 1542 1541 1541 1541 1541 1540 1540 1539 1538 1536 1533 1532 1530 1527 1526 1525 1521 1517
1510 1512 1512 1499 1487 1491 1492 1495 1494 1495 1493 1498 1501 1504 1507 1512 1517 1519 1521 1521 1523 1525 1528 1530 1530 1531 1532 1535 1538 1541 1541 1540 1539 1540 1540 1540 1538 1537 1536 1535 1532 1529 1527 1525 1522 1521 1519 1517 1511
1507 1512 1510 1496 1486 1490 1497 1503 1500 1499 1496 1497 1501 1505 1508 1513 1518 1521 1523 1523 1524 1525 1525 1526 1527 1530 1533 1535 1538 1539 1538 1539 1538 1539 1538 1537 1535 1533 1532 1530 1528 1526 1525 1522 1520 1517 1513 1511 1508
1503 1506 1502 1499 1487 1491 1499 1512 1511 1507 1503 1504 1505 1507 1510 1513 1516 1520 1522 1522 1523 1524 1525 1526 1527 1531 1534 1535 1536 1536 1537 1537 1537 1536 1535 1534 1532 1530 1528 1525 1523 1521 1519 1516 1515 1512 1509 1507 1505
1503 1489 1490 1489 1495 1505 1499 1526 1518 1512 1511 1510 1507 1507 1509 1513 1517 1519 1522 1523 1524 1526 1527 1528 1530 1532 1533 1534 1534 1535 1536 1535 1535 1534 1533 1531 1529 1527 1524 1522 1519 1517 1513 1510 1509 1507 1506 1504 1502
1489 1480 1483 1483 1489 1498 1499 1515 1519 1513 1513 1511 1510 1510 1512 1513 1518 1520 1523 1523 1524 1526 1529 1530 1530 1532 1534 1534 1534 1534 1533 1533 1532 1531 1529 1527 1526 1524 1521 1518 1515 1512 1509 1507 1505 1503 1502 1500 1497
1476 1479 1483 1489 1499 1510 1501 1505 1517 1504 1499 1504 1508 1509 1513 1516 1519 1522 1523 1524 1525 1526 1530 1531 1531 1532 1533 1533 1533 1531 1530 1529 1528 1527 1525 1523 1521 1518 1516 1513 1510 1507 1504 1502 1501 1499 1496 1494 1491
1474 1487 1506 1509 1515 1512 1496 1502 1497 1489 1490 1495 1501 1507 1511 1517 1519 1521 1523 1524 1525 1527 1531 1532 1531 1532 1533 1532 1531 1530 1528 1527 1524 1522 1520 1518 1516 1513 1511 1509 1505 1503 1500 1497 1496 1494 1492 1490 1487
1472 1482 1505 1521 1521 1512 1496 1504 1496 1483 1490 1498 1503 1507 1510 1516 1520 1521 1523 1525 1524 1528 1533 1534 1532 1532 1532 1531 1530 1528 1526 1524 1522 1520 1517 1515 1513 1511 1509 1506 1503 1500 1498 1495 1493 1490 1488 1485 1483
1473 1475 1471 1490 1501 1512 1505 1501 1499 1494 1492 1493 1496 1501 1508 1515 1518 1521 1523 1525 1523 1528 1533 1533 1533 1531 1530 1529 1528 1526 1524 1521 1518 1515 1514 1512 1510 1509 1507 1505 1501 1498 1496 1493 1490 1487 1484 1481 1478
1458 1458 1483 1488 1508 1517 1507 1505 1501 1499 1495 1493 1495 1498 1504 1512 1517 1519 1521 1522 1521 1527 1532 1532 1532 1531 1529 1527 1526 1524 1521 1518 1515 1514 1513 1511 1509 1507 1505 1503 1500 1497 1494 1491 1487 1483 1480 1477 1474
1457 1460 1462 1475 1486 1503 1513 1503 1477 1475 1481 1487 1494 1497 1502 1509 1515 1517 1520 1521 1523 1526 1530 1531 1530 1529 1527 1526 1524 1523 1521 1518 1516 1514 1512 1511 1508 1506 1504 1500 1497 1495 1493 1489 1485 1480 1476 1472 1468
1444 1451 1459 1480 1484 1486 1494 1489 1460 1464 1476 1483 1492 1499 1505 1511 1516 1519 1524 1525 1526 1528 1531 1529 1528 1526 1524 1524 1524 1522 1520 1517 1515 1512 1509 1507 1507 1504 1501 1497 1495 1492 1490 1487 1482 1478 1473 1468 1463